Alturas, CA

5:45 AM PDT on March 30, 2017 (GMT -0700)
Alturas Municipal

Weather History for KAAT - September, 2012

Change the Weather History Date:

Wednesday, September 5, 2012

  Actual Average Record
Temperature  
Mean Temperature 61 °F 60 °F  
Max Temperature 88 °F 81 °F 104 °F (1955)
Min Temperature 34 °F 38 °F 27 °F (1971)
Degree Days  
Heating Degree Days 4 6  
Month to date heating degree days 22 27  
Since 1 July heating degree days 65 138  
Cooling Degree Days 0 0  
Month to date cooling degree days 0 3  
Year to date cooling degree days 217 154  
Growing Degree Days 12 (Base 50)    
Moisture  
Dew Point 21 °F    
Average Humidity 33    
Maximum Humidity 59    
Minimum Humidity 7    
Precipitation  
Precipitation 0.00 in 0.01 in 0.17 in (1972)
Month to date precipitation 0.00 0.07  
Year to date precipitation 5.96 9.21  
Sea Level Pressure  
Sea Level Pressure 30.01 in    
Wind  
Wind Speed 5 mph (West)    
Max Wind Speed 22 mph    
Max Gust Speed 28 mph    
T = Trace of Precipitation, MM = Missing Value Source: NWS Daily Summary

Daily Weather History Graph

Daily Weather History Graph

Search for Another Location

Airport or City:

Trip Planner

Search our weather history database for the weather conditions in past years. The results will help you decide how hot, cold, wet, or windy it might be!

Date:

Astronomy

Sep. 05, 2012 Rise Set
Actual Time 6:33 AM PDT 7:27 PM PDT
Civil Twilight 6:04 AM PDT 7:55 PM PDT
Nautical Twilight 5:31 AM PDT 8:29 PM PDT
Astronomical Twilight 4:56 AM PDT 9:03 PM PDT
Moon 9:56 PM PDT (9/5) 11:46 AM PDT (9/5)
Length of Visible Light 13h 50m
Length of Day
12h 54m
Waning Gibbous, 75% of the Moon is Illuminated
Sep 5
Waning Gibbous
Sep 8
Last Quarter
Sep 15
New
Sep 22
First Quarter
Sep 29
Full

Hourly Weather History & Observations

Time (PDT) Temp. Windchill Dew Point Humidity Pressure Visibility Wind Dir Wind Speed Gust Speed Precip Events Conditions
12:55 AM 46.0 °F 44.8 °F 28.0 °F 50% 30.06 in - South 3.5 mph - N/A   Clear
1:55 AM 45.0 °F - 25.0 °F 46% 30.05 in - Calm Calm - N/A   Clear
2:55 AM 45.0 °F - 26.1 °F 48% 30.06 in - Calm Calm - N/A   Clear
3:55 AM 41.0 °F - 24.1 °F 51% 30.06 in - Calm Calm - N/A   Clear
4:55 AM 37.9 °F - 25.0 °F 60% 30.06 in - Calm Calm - N/A   Clear
5:55 AM 37.0 °F - 23.0 °F 57% 30.07 in - Calm Calm - N/A   Clear
6:55 AM 36.0 °F - 21.9 °F 57% 30.09 in - Calm Calm - N/A   Clear
7:55 AM 46.0 °F - 26.1 °F 46% 30.09 in - Calm Calm - N/A   Clear
8:55 AM 57.9 °F - 27.0 °F 31% 30.06 in - Calm Calm - N/A   Clear
9:55 AM 64.9 °F - 28.0 °F 25% 30.05 in - Calm Calm - N/A   Clear
10:55 AM 73.9 °F - 25.0 °F 16% 30.02 in - Calm Calm - N/A   Clear
11:55 AM 81.0 °F - 23.0 °F 12% 29.99 in - NNE 3.5 mph - N/A   Clear
12:55 PM 84.0 °F - 17.1 °F 8% 29.99 in - WSW 11.5 mph 18.4 mph N/A   Clear
1:55 PM 88.0 °F - 18.0 °F 8% 29.96 in - WNW 13.8 mph 20.7 mph N/A   Clear
2:55 PM 88.0 °F - 15.1 °F 7% 29.94 in - West 20.7 mph 25.3 mph N/A   Clear
3:55 PM 87.1 °F - 16.0 °F 7% 29.95 in - West 18.4 mph 25.3 mph N/A   Clear
4:55 PM 87.1 °F - 18.0 °F 8% 29.94 in - West 16.1 mph 24.2 mph N/A   Partly Cloudy
5:55 PM 84.0 °F - 19.0 °F 9% 29.94 in - West 13.8 mph - N/A   Clear
6:55 PM 78.1 °F - 15.1 °F 9% 29.97 in - West 11.5 mph - N/A   Clear
7:55 PM 72.0 °F - 17.1 °F 12% 29.98 in - Variable 3.5 mph - N/A   Clear
8:55 PM 69.1 °F - 16.0 °F 13% 29.98 in - Calm Calm - N/A   Clear
9:55 PM 64.0 °F - 18.0 °F 17% 29.98 in - Calm Calm - N/A   Clear
10:55 PM 63.0 °F - 19.9 °F 19% 29.98 in - West 3.5 mph - N/A   Clear
11:55 PM 64.9 °F - 21.9 °F 19% 29.97 in - SSW 3.5 mph - N/A   Scattered Clouds